Chattanooga, TN

7:23 AM EDT on May 25, 2017 (GMT -0400)
Lovell

Weather History for KCHA - February, 2013

Change the Weather History Date:

Tuesday, February 26, 2013

  Actual Average Record
Temperature  
Mean Temperature 46 °F 47 °F  
Max Temperature 50 °F 58 °F 79 °F (1977)
Min Temperature 42 °F 37 °F 10 °F (1967)
Degree Days  
Heating Degree Days 19 18  
Month to date heating degree days 537 542  
Since 1 July heating degree days 2275 2587  
Moisture  
Dew Point 43 °F    
Average Humidity 81    
Maximum Humidity 100    
Minimum Humidity 61    
Precipitation  
Precipitation 0.90 in 0.18 in 2.68 in (1944)
Month to date precipitation 3.94 4.49  
Year to date precipitation 13.68 9.40  
Snow  
Snow 0.00 in 0.00 in - ()
Month to date snowfall 0.3 0.5  
Since 1 July snowfall 0.3 2.5  
Snow Depth 0.00 in    
Sea Level Pressure  
Sea Level Pressure 29.63 in    
Wind  
Wind Speed 10 mph (SSW)    
Max Wind Speed 23 mph    
Max Gust Speed 30 mph    
Visibility 7 miles    
Events Rain    
T = Trace of Precipitation, MM = Missing Value Source: NWS Daily Summary

Daily Weather History Graph

Daily Weather History Graph

Search for Another Location

Airport or City:

Trip Planner

Search our weather history database for the weather conditions in past years. The results will help you decide how hot, cold, wet, or windy it might be!

Date:

Astronomy

Feb. 26, 2013 Rise Set
Actual Time 7:13 AM EST 6:34 PM EST
Civil Twilight 6:48 AM EST 6:59 PM EST
Nautical Twilight 6:18 AM EST 7:28 PM EST
Astronomical Twilight 5:49 AM EST 7:58 PM EST
Moon 7:44 PM EST (2/26) 7:19 AM EST (2/26)
Length of Visible Light 12h 11m
Length of Day
11h 20m
Full, 99% of the Moon is Illuminated
Feb 26
Full
Mar 4
Last Quarter
Mar 11
New
Mar 19
First Quarter
Mar 27
Full

Hourly Weather History & Observations

Time (EST) Temp. Windchill Dew Point Humidity Pressure Visibility Wind Dir Wind Speed Gust Speed Precip Events Conditions
12:53 AM 46.9 °F - 45.0 °F 93% 29.76 in 4.0 mi South 3.5 mph - 0.09 in Rain Rain
1:06 AM 46.4 °F 44.3 °F 44.6 °F 93% 29.76 in 2.5 mi South 4.6 mph - 0.06 in Rain Heavy Rain
1:27 AM 46.4 °F 43.5 °F 46.4 °F 100% 29.75 in 4.0 mi South 5.8 mph - 0.14 in Rain Rain
1:42 AM 46.4 °F 44.3 °F 44.6 °F 93% 29.74 in 6.0 mi South 4.6 mph - 0.16 in Rain Rain
1:53 AM 46.0 °F 43.1 °F 45.0 °F 96% 29.72 in 5.0 mi SE 5.8 mph - 0.18 in Rain Rain
2:23 AM 46.4 °F 42.9 °F 44.6 °F 93% 29.70 in 6.0 mi SSE 6.9 mph - 0.06 in Rain Rain
2:31 AM 46.4 °F 42.4 °F 44.6 °F 93% 29.69 in 5.0 mi South 8.1 mph - 0.07 in Rain Rain
2:53 AM 45.0 °F 41.2 °F 44.1 °F 97% 29.69 in 4.0 mi South 6.9 mph - 0.14 in Rain Rain
3:53 AM 45.0 °F 42.6 °F 44.1 °F 97% 29.62 in 9.0 mi ESE 4.6 mph - 0.15 in Rain Light Rain
4:53 AM 46.0 °F - 45.0 °F 96% 29.59 in 2.5 mi Calm Calm - 0.09 in Rain Heavy Rain
5:20 AM 46.4 °F - 46.4 °F 100% 29.60 in 1.8 mi Calm Calm - 0.18 in Rain Heavy Rain
5:27 AM 46.4 °F 43.5 °F 46.4 °F 100% 29.60 in 3.0 mi South 5.8 mph - 0.20 in Rain Light Rain
5:48 AM 46.4 °F 43.5 °F 44.6 °F 93% 29.58 in 7.0 mi SSE 5.8 mph - 0.22 in Rain Light Rain
5:53 AM 45.0 °F 41.8 °F 45.0 °F 100% 29.57 in 7.0 mi SSE 5.8 mph - 0.22 in Rain Light Rain
6:49 AM 46.4 °F 45.2 °F 44.6 °F 93% 29.54 in 10.0 mi South 3.5 mph - 0.00 in   Mostly Cloudy
6:53 AM 46.9 °F - 45.0 °F 93% 29.54 in 10.0 mi SSW 6.9 mph - 0.00 in   Mostly Cloudy
7:53 AM 45.0 °F 39.3 °F 43.0 °F 93% 29.55 in 7.0 mi SSW 11.5 mph - 0.00 in Rain Light Rain
8:53 AM 45.0 °F 39.7 °F 44.1 °F 97% 29.55 in 8.0 mi South 10.4 mph 17.3 mph 0.01 in   Mostly Cloudy
9:53 AM 45.0 °F 39.7 °F 43.0 °F 93% 29.55 in 10.0 mi South 10.4 mph 20.7 mph 0.00 in   Overcast
10:00 AM 44.6 °F 38.4 °F 42.8 °F 93% 29.55 in 10.0 mi SSW 12.7 mph - N/A   Overcast
10:53 AM 46.9 °F - 44.1 °F 90% 29.54 in 10.0 mi South 10.4 mph 20.7 mph N/A   Overcast
11:53 AM 46.0 °F 42.5 °F 44.1 °F 93% 29.55 in 8.0 mi South 6.9 mph - N/A   Overcast
12:51 PM 46.4 °F 40.7 °F 44.6 °F 93% 29.56 in 3.0 mi SSW 12.7 mph - N/A   Overcast
12:53 PM 46.0 °F 40.2 °F 45.0 °F 96% 29.56 in 3.0 mi SSW 12.7 mph - N/A   Overcast
1:20 PM 46.4 °F 41.1 °F 44.6 °F 93% 29.56 in 2.5 mi South 11.5 mph 19.6 mph 0.00 in   Light Drizzle
1:49 PM 46.4 °F 40.1 °F 44.6 °F 93% 29.55 in 5.0 mi South 15.0 mph 24.2 mph 0.00 in   Overcast
1:53 PM 46.9 °F - 45.0 °F 93% 29.56 in 5.0 mi South 11.5 mph 24.2 mph 0.00 in   Overcast
2:04 PM 46.4 °F 40.7 °F 44.6 °F 93% 29.56 in 6.0 mi South 12.7 mph 21.9 mph N/A   Overcast
2:39 PM 46.4 °F 42.4 °F 44.6 °F 93% 29.56 in 10.0 mi South 8.1 mph - N/A   Overcast
2:53 PM 46.9 °F - 45.0 °F 93% 29.56 in 10.0 mi South 5.8 mph - N/A   Overcast
3:18 PM 48.2 °F - 44.6 °F 87% 29.57 in 10.0 mi SSW 13.8 mph 19.6 mph N/A   Mostly Cloudy
3:33 PM 50.0 °F - 42.8 °F 76% 29.57 in 10.0 mi SSW 16.1 mph 21.9 mph N/A   Mostly Cloudy
3:53 PM 50.0 °F - 39.9 °F 68% 29.57 in 10.0 mi SW 16.1 mph 24.2 mph N/A   Mostly Cloudy
4:53 PM 48.9 °F - 36.0 °F 61% 29.60 in 10.0 mi SW 21.9 mph 27.6 mph N/A   Overcast
5:53 PM 48.0 °F - 35.1 °F 61% 29.64 in 10.0 mi SSW 12.7 mph 25.3 mph N/A   Overcast
6:53 PM 46.9 °F - 35.1 °F 63% 29.67 in 10.0 mi SW 17.3 mph 23.0 mph N/A   Overcast
7:53 PM 45.0 °F 39.7 °F 37.0 °F 74% 29.69 in 10.0 mi SW 10.4 mph 23.0 mph 0.00 in   Overcast
8:53 PM 45.0 °F 39.3 °F 35.1 °F 68% 29.71 in 10.0 mi SSW 11.5 mph 25.3 mph N/A   Overcast
9:53 PM 43.0 °F 36.4 °F 37.9 °F 82% 29.75 in 5.0 mi SW 12.7 mph 21.9 mph 0.00 in Rain Light Rain
10:05 PM 42.8 °F 36.6 °F 39.2 °F 87% 29.76 in 5.0 mi West 11.5 mph - 0.01 in Rain Light Rain
10:26 PM 42.8 °F 38.0 °F 37.4 °F 81% 29.76 in 10.0 mi SW 8.1 mph - 0.02 in   Overcast
10:53 PM 42.1 °F 36.1 °F 37.0 °F 82% 29.76 in 10.0 mi WSW 10.4 mph - 0.02 in   Overcast
11:53 PM 43.0 °F 36.4 °F 35.1 °F 74% 29.76 in 10.0 mi SW 12.7 mph 23.0 mph N/A   Overcast